IRIDIUM 33 DEB, 35622

Orbit data source: Space-Track

IRIDIUM 33 DEB, 35622 is space debris in LEO originally from a launch on Sun, 14 Sep 1997 UTC launched from the Tyuratam Missile And Space Complex (TTMTR). The debris from Iridium 33, an American commercial communications satellite, has been tracked extensively since its accidental collision with the defunct Russian satellite Cosmos 2251 in 2009. This event, occurring at high speed in low Earth orbit (LEO), generated thousands of pieces of space debris, significantly increasing the risk of further collisions. The Iridium 33 debris cloud has impacted space traffic management and orbital debris mitigation strategies, making it a subject of ongoing study in space situational awareness.

Loading next visibility...
Identifier
35622, 1997-051QU
Orbit
LEO
Country
Flag of USUS
Related business
Manufacturer
Unknown
Mission
Spacecraft
Bus & Motor
Unknown
Mass
Unknown
Launch date (UTC)
1997-09-14 (28 years ago)
Launch vehicle
Unknown
Launch site
Tyuratam Missile And Space Complex (TTMTR)
Object type
Payload
Rocket body
Debris
Shape & HBR
Unknown shape, 0.1 m
Radar Cross Section
Small (<0.1 m²)

Expand to show TLE details & history
Last TLE update: 2 days ago

TLE from 2 days ago
0 IRIDIUM 33 DEB
1 35622U 97051QU  25348.51023116  .00069411  00000-0  48536-2 0  9990
2 35622  86.2028 262.7313 0005489 323.1514 209.8665 15.04969242873865
Epoch: 2025-12-14T12:14Z
TLE epoch observation values (Epoch: 2025-12-14T12:14:43.972Z)
Latitude
6.91942°
Longitude
175.167°
Altitude
557.414 km
Speed
7.582 km/s
True Right ascension
05h 29m 05s
True Declination
6° 52' 38"
Sunlit
Object was in full shadow at epoch
Visualization orbit readout
Latitude
Unknown
Longitude
Unknown
Altitude
Unknown
Speed
Unknown
Apparent Right ascension
Unknown
Apparent Declination
Unknown
Sunlit
N/A
Visualization observer readout
Local Sidereal Time
08:54:27
Azimuth
Unknown
Elevation
Unknown
Doppler factor
Unknown
Orbital elements
Apogee altitude
552.272 km
Perigee altitude
544.667 km
Semi-major axis
6,926.607 km
Eccentricity
0.00055
Inclination
86.2028°
RAAN
262.7313°
Arg. of periapsis
323.1514°
True anomaly
209.8352°
Mean anomaly
209.8665°
Eccentric anomaly
209.85085°
Mean motion
3.76498 °/min
Orbital period
95.62 mins
BSTAR
0.0048536

Documentation

Showing up to 5 results
|